STARLINK-36522, 67461

Orbit data source: Space-Track

STARLINK-36522, 67461 is a payload satellite owned by SpaceX/Seattle (US) in LEO that was launched on Wed, 14 Jan 2026 UTC via an FALCON 9 launch vehicle from the Air Force Eastern Test Range (AFETR). Payload-class satellites include a variety of spacecraft equipped with specific instruments for various scientific and technological missions. These include communications satellites like Starlink; space stations such as the ISS; scientific satellites like the Hubble; Earth observation satellites from companies like Planet Labs, Umbra, and HawkEye 360; GPS; miniature CubeSats for education and research; and military/defense satellites.

Loading next visibility...
Identifier
67461, 2026-008S
Orbit
LEO
Country
Flag of USUS
Related business
Manufacturer
SpaceX/Seattle
Mission
Operational spacecraft
Bus & Motor
STARLINK V2MO, Unknown motor
Mass
575 kg wet, ~530 kg dry
Launch date (UTC)
2026-01-14 (2 months ago)
Launch vehicle
FALCON 9
Launch site
Air Force Eastern Test Range (AFETR)
Object type
Payload
Rocket body
Debris
Shape & HBR
Unknown shape, 17.7 m
Radar Cross Section
RCS unknown

Expand to show TLE details & history
Last TLE update: 20 hours ago

TLE from 20 hours ago
0 STARLINK-36522
1 67461U 26008S   26062.48767525  .00044968  00000-0  16323-2 0  9998
2 67461  42.9992 240.2571 0001782 254.8536 105.2119 15.27608014  8622
Epoch: 2026-03-03T11:42Z
TLE epoch observation values (Epoch: 2026-03-03T11:42:15.141Z)
Latitude
Longitude
-96.57201°
Altitude
483.061 km
Speed
7.626 km/s
True Right ascension
16h 01m 01s
True Declination
0° 00' 00"
Sunlit
Object was in daylight at epoch
Visualization orbit readout
Latitude
Unknown
Longitude
Unknown
Altitude
Unknown
Speed
Unknown
Apparent Right ascension
Unknown
Apparent Declination
Unknown
Sunlit
N/A
Visualization observer readout
Local Sidereal Time
11:19:01
Azimuth
Unknown
Elevation
Unknown
Doppler factor
Unknown
Orbital elements
Apogee altitude
486.134 km
Perigee altitude
483.688 km
Semi-major axis
6,863.048 km
Eccentricity
0.00018
Inclination
42.9992°
RAAN
240.2571°
Arg. of periapsis
254.8536°
True anomaly
105.2316°
Mean anomaly
105.2119°
Eccentric anomaly
105.22175°
Mean motion
3.8174 °/min
Orbital period
94.31 mins
BSTAR
0.0016323
Loading maneuver chart data...
Computing Atmospheric mass density...
Loading historical data...
Loading historical data...
Loading historical data...
Loading historical data...
Loading historical data...
Loading historical data...
Loading historical data...

Documentation

Showing up to 5 results
|